sat.trackr.live / text

‹ back to catalog

STARLINK-30128

NORAD 56832 · 2023-079K

PAYLOAD ACTIVE UNKNOWN

§ Identity

Operator
Country
US
Launch date
2023-06-04
Launch site
AFETR
Launch vehicle
Mass (kg)
RCS (m²)

Purposes: comms

External: N2YO · Heavens-Above · Gunter

§ Orbital elements

Epoch: 2026-09-20T21:13:22.763136Z

Period
94.27 min
Inclination
43.0057°
Eccentricity
0.0001188
Mean motion
15.27576298 rev/d
Perigee alt
482.2 km
Apogee alt
483.9 km
Semi-major
6,861.2 km
B*
5.7398e-6
RAAN
58.8808°
Arg perigee
272.5157°
Mean anomaly
87.5559°
Rev number
17,663

§ Raw data

STARLINK-301281 56832U 23079K   26263.88429124 -.00000104  00000+0  57398-5 0  99942 56832  43.0057  58.8808 0001188 272.5157  87.5559 15.27576298176633

JSON: /api/v1/satellites/56832 · /tle

For live sub-satellite position, see the globe view (requires WebGL).

§ Visibility from observer

Set your observer location to see the next 7 days of passes ≥ 10°. The values pass through the URL so the page stays shareable.

No JS? Fill the form by hand. The geolocation button needs JavaScript.